Monterey, CA

12:58 AM PST on December 04, 2016 (GMT -0800)
Monterey Peninsula

Weather History for KMRY - January, 2011

Change the Weather History Date:

Thursday, January 6, 2011

  Actual Average Record
Temperature  
Mean Temperature 49 °F 51 °F  
Max Temperature 60 °F 60 °F 75 °F (2015)
Min Temperature 37 °F 42 °F 35 °F (2007)
Degree Days  
Heating Degree Days 16    
Month to date heating degree days 88  
Since 1 July heating degree days 1466  
Cooling Degree Days 0    
Month to date cooling degree days 0  
Year to date cooling degree days 0  
Moisture  
Dew Point 37 °F    
Average Humidity 69    
Maximum Humidity 85    
Minimum Humidity 53    
Precipitation  
Precipitation 0.00 in - 1.48 in (2016)
Month to date precipitation 0.98  
Year to date precipitation 0.98  
Since 1 July precipitation 7.96  
Sea Level Pressure  
Sea Level Pressure 30.19 in    
Wind  
Wind Speed 2 mph (SE)    
Max Wind Speed 7 mph    
Max Gust Speed 8 mph    
Visibility 10 miles    
Events      
T = Trace of Precipitation, MM = Missing Value Source: NWS Daily Summary

Daily Weather History Graph

Daily Weather History Graph

Search for Another Location

Airport or City:

Trip Planner

Search our weather history database for the weather conditions in past years. The results will help you decide how hot, cold, wet, or windy it might be!

Date:

Astronomy

Jan. 06, 2011 Rise Set
Actual Time 7:20 AM PST 5:06 PM PST
Civil Twilight 6:51 AM PST 5:35 PM PST
Nautical Twilight 6:19 AM PST 6:07 PM PST
Astronomical Twilight 5:48 AM PST 6:38 PM PST
Moon 8:42 AM PST (1/6) 7:44 PM PST (1/6)
Length of Visible Light 10h 43m
Length of Day
9h 46m
Waxing Crescent, 6% of the Moon is Illuminated
Jan 6
Waxing Crescent
Jan 12
First Quarter
Jan 19
Full
Jan 26
Last Quarter
Feb 2
New

Hourly Weather History & Observations

Time (PST) Temp. Windchill Dew Point Humidity Pressure Visibility Wind Dir Wind Speed Gust Speed Precip Events Conditions
12:54 AM 39.2 °F 37.0 °F 33.8 °F 81% 30.23 in 10.0 mi SW 3.5 mph - N/A   Clear
1:54 AM 37.9 °F 34.4 °F 33.1 °F 83% 30.28 in 10.0 mi ESE 4.6 mph - N/A   Clear
2:54 AM 37.9 °F - 34.0 °F 86% 30.25 in 10.0 mi Calm Calm - N/A   Clear
3:54 AM 39.0 °F 36.8 °F 34.0 °F 82% 30.23 in 10.0 mi ESE 3.5 mph - N/A   Clear
4:54 AM 39.9 °F - 32.0 °F 73% 30.22 in 10.0 mi Calm Calm - N/A   Clear
5:54 AM 39.0 °F - 33.1 °F 79% 30.22 in 10.0 mi Calm Calm - N/A   Clear
6:54 AM 37.9 °F - 32.0 °F 79% 30.23 in 10.0 mi Calm Calm - N/A   Clear
7:54 AM 37.0 °F 34.5 °F 30.9 °F 79% 30.24 in 10.0 mi East 3.5 mph - N/A   Clear
8:54 AM 43.0 °F - 35.1 °F 74% 30.24 in 10.0 mi Calm Calm - N/A   Clear
9:54 AM 46.9 °F - 37.0 °F 68% 30.24 in 10.0 mi SW 3.5 mph - N/A   Clear
10:54 AM 52.0 °F - 37.9 °F 59% 30.23 in 10.0 mi Calm Calm - N/A   Clear
11:54 AM 54.0 °F - 39.9 °F 59% 30.20 in 10.0 mi SW 4.6 mph - N/A   Clear
12:54 PM 55.9 °F - 39.9 °F 55% 30.17 in 10.0 mi Calm Calm - N/A   Clear
1:54 PM 57.9 °F - 41.0 °F 53% 30.17 in 10.0 mi Calm Calm - N/A   Clear
2:54 PM 59.0 °F - 42.1 °F 53% 30.15 in 10.0 mi Calm Calm - N/A   Clear
3:54 PM 57.9 °F - 41.0 °F 53% 30.14 in 10.0 mi Calm Calm - N/A   Clear
4:54 PM 55.0 °F - 41.0 °F 59% 30.13 in 10.0 mi Calm Calm - N/A   Clear
5:54 PM 50.0 °F - 41.0 °F 71% 30.14 in 10.0 mi SE 3.5 mph - N/A   Clear
6:54 PM 46.0 °F 43.9 °F 39.9 °F 79% 30.15 in 10.0 mi East 4.6 mph - N/A   Clear
7:54 PM 46.0 °F 44.8 °F 39.0 °F 76% 30.15 in 10.0 mi East 3.5 mph - N/A   Clear
8:54 PM 46.0 °F 44.8 °F 39.0 °F 76% 30.15 in 10.0 mi East 3.5 mph - N/A   Clear
9:54 PM 45.0 °F - 39.0 °F 80% 30.14 in 10.0 mi Calm Calm - N/A   Clear
10:54 PM 46.0 °F - 39.0 °F 76% 30.14 in 10.0 mi Calm Calm - N/A   Clear
11:54 PM 45.0 °F - 37.9 °F 76% 30.13 in 10.0 mi Calm Calm - N/A   Clear